{"data":{"norad_id":68178,"intl_designator":"2026-050M","name":"STARLINK-36677","alt_names":[],"object_type":"PAYLOAD","status":"ACTIVE","operator":null,"country":"US","launch_date":"2026-03-14","launch_site_code":"AFETR","launch_vehicle":null,"mission":null,"orbit_class":"UNKNOWN","rcs_meters":null,"size_class":null,"mass_kg":null,"dimensions":null,"purposes":["comms"],"wikipedia_slug":null,"has_3d_model":false,"image_url":null,"decayed_at":null,"tle_current":{"epoch":"2026-09-19T21:14:50.396928Z","epoch_age_seconds":108591,"freshness":"FRESH","line1":"1 68178U 26050M   26262.88530552  .00020889  00000+0  62729-3 0  9992","line2":"2 68178  53.1606  80.5908 0001710  57.8028 302.3140 15.34417393 30479","mean_motion":15.34417393,"eccentricity":0.000171,"inclination_deg":53.1606,"raan_deg":80.5908,"arg_perigee_deg":57.8028,"mean_anomaly_deg":302.314,"bstar":0.00062729,"rev_number":3047,"period_min":93.846694293826,"perigee_km":461.48177019282,"apogee_km":463.82131987522,"semimajor_km":6840.788545034,"source":"CELESTRAK","updated_at":"2026-09-20T09:00:43.800772Z"}}}